Weather Roundup
Issued by NWS

Home | Current Version | Previous Version | Graphics & Text | Print | Product List | Glossary Off
Versions: 1 2 3 4 5 6 7 8 9 10 11 12 13 14 15 16 17 18 19 20 21 22 23 24 25 26 27 28 29 30 31 32 33 34 35 36 37 38 39 40 41 42 43 44 45 46 47 48 49 50

000
NZUS93 KARX 290610
HRRWXR

CURRENT HOURLY OBSERVATIONS ACROSS
MUCH OF THE UPPER MISSISSIPPI VALLEY
NATIONAL WEATHER SERVICE LA CROSSE WI
100 AM CDT FRI AUG 29 2014


...SOUTHEAST MINNESOTA...


CITY           SKY/WX    TMP DP  RH WIND       PRES   REMARKS
ROCHESTER      LGT RAIN  67  65  93 SE10      29.92F FOG
ROCHESTER/MAYO CLOUDY    66  65  98 SE9       29.92F
WINONA         CLOUDY    66  64  94 SE9       29.94F
AUSTIN         CLOUDY    68  66  94 S8        29.90F VSB 1
ALBERT LEA     RAIN      70  68  94 S9        29.89F
DODGE CENTER   FOG       66  66 100 SE9       29.91F VSB 1
PRESTON        CLOUDY    65  66 100 CALM      29.94F FOG
OWATONNA       DRIZZLE   68  66  94 SE7       29.89F
FARIBAULT      CLOUDY    70  64  83 SE6       29.89F HAZE
$$

...ELSEWHERE IN MINNESOTA...


CITY           SKY/WX    TMP DP  RH WIND       PRES   REMARKS
MINNEAPOLIS    CLOUDY    67  65  93 SE13      29.88F
INTNL FALLS    CLOUDY    62  60  93 CALM      29.89F
DULUTH         CLOUDY    60  55  83 E6        29.95F
RED WING       CLOUDY    66  64  94 SE9       29.90S
REDWOOD FALLS  CLOUDY    66  65  96 SE8       29.83F FOG
MANKATO        CLOUDY    73  63  68 SE13      29.86F
WORTHINGTON    CLOUDY    72  72 100 S7        29.85F
FAIRMONT       CLOUDY    68  66  94 S12       29.85F
$$

...SOUTHWEST WISCONSIN...


CITY           SKY/WX    TMP DP  RH WIND       PRES   REMARKS
LA CROSSE      CLOUDY    66  62  87 E7        29.94F
PRAIRIE DU CHI CLOUDY    68  63  84 E5        29.95F
BOSCOBEL       MOCLDY    68  60  75 CALM      29.97F
LONE ROCK      FAIR      68  59  73 E6        29.98F
PLATTEVILLE    FAIR      64  62  94 CALM      29.99F
FORT MC COY    CLOUDY    62  59  91 CALM      29.98S
CAMP DOUGLAS   MOCLDY    60  60 100 E6        29.98F
VIROQUA        CLOUDY    63  62  99 SE8       29.97F
WIS DELLS      CLOUDY    63  57  82 SE7       29.98F
$$

...ELSEWHERE IN WISCONSIN...


CITY           SKY/WX    TMP DP  RH WIND       PRES   REMARKS
MILWAUKEE      MOCLDY    68  61  78 SE10      30.02F
MADISON        MOCLDY    65  60  84 SE7       29.99F
GREEN BAY      LGT RAIN  63  58  83 S6        30.04F
EAU CLAIRE     CLOUDY    63  60  90 SE12      29.94F
BLACK RVR FLS  CLOUDY    60  60 100 E6        29.98S
MEDFORD        DRIZZLE   57  57  97 SE9       30.02S
WAUSAU         LGT RAIN  58  57  97 S10       30.03S FOG
WIS RAPIDS     LGT RAIN  57  56  96 E7        30.02F
MARSHFIELD     LGT RAIN  58  56  93 SE9       30.02S FOG
RICE LAKE      CLOUDY    64  61  91 SE13G18   29.96F
$$

...NORTHEAST IOWA...


CITY           SKY/WX    TMP DP  RH WIND       PRES   REMARKS
WATERLOO       LGT RAIN  70  67  90 SE12      29.92S
DUBUQUE        FAIR      66  65  96 S7        29.98F
DECORAH        CLOUDY    68  66  94 S9G15     29.93F
MASON CITY     LGT RAIN  70  69  97 S12       29.92S FOG
CHARLES CITY   CLOUDY    68  68 100 S7        29.94S FOG
OELWEIN        CLOUDY    68  68 100 SE14      29.94F FOG
$$

...ELSEWHERE IN IOWA...


CITY           SKY/WX    TMP DP  RH WIND       PRES   REMARKS
DES MOINES     TSTM      69  67  93 NW13      29.94F FOG
IOWA CITY      FAIR      68  68 100 SE6       29.96F
FORT DODGE     CLOUDY    70  66  88 S9        29.90R
MARSHALLTOWN   RAIN      68  67  96 S8        29.95S FOG
CEDAR RAPIDS   MOCLDY    68  68 100 SE6       29.94F FOG
$$

...NORTHERN ILLINOIS...


CITY           SKY/WX    TMP DP  RH WIND       PRES   REMARKS
CHICAGO-OHARE  CLOUDY    70  64  81 SE7       30.01F
DUPAGE         FAIR      69  65  86 SE6       30.01F
CHICAGO-MIDWAY CLOUDY    73  67  81 SE10      30.01F
MOLINE         FAIR      70  68  93 S8        29.96F
ROCKFORD       MOCLDY    66  64  93 S3        30.01F FOG
STERLING       FAIR      70  64  83 SE7       29.99F
PEORIA         FAIR      72  68  87 SE7       29.99S
$$

NOTE: "FAIR" INDICATES FEW OR NO CLOUDS BELOW 12,000 FEET WITH NO
SIGNIFICANT WEATHER AND/OR OBSTRUCTIONS TO VISIBILITY. WIND
SPEEDS ARE IN MILES-PER-HOUR.



USA.gov is the U.S. government's official web portal to all federal, state and local government web resources and services.